星链-35188(STARLINK-35188)

导读

STARLINK-35188是美国SpaceX公司星链(Starlink)卫星互联网星座的一员,于2025年9月6日发射升空,属于星链星座持续扩展部署的低轨卫星。该卫星运行在近地轨道,作为星链全球网络的组成部分,为全球偏远地区、基础设施匮乏区域提供高速低延迟宽带互联网服务,同时可支持应急通信与部分商业应用,不过星链大规模低轨卫星部署也引发了太空拥堵与天文观测影响的相关讨论。

Basic Information
目录编号:
65522
目录名称:
STARLINK-35188
国际标识:
2025-200C
轨道中心:
EARTH
卫星名称:
星链-35188
卫星全名:
星链-35188(STARLINK-35188)
卫星状态:
在轨 (已飞行363 天)
发射日期:
2025-09-06 UTC
国别 :
美国 (US)
星等 :
--
Orbit Information
数据来源 国际轨道数据
星历时间: 2026-09-04T11:09:34+0800
11小时前
查看轨道信息
半长轴: 6843.667km
偏心率: 0.0001313
轨道倾角: 97.284°
近地点辐角 103.197°
升交点赤经 313.768°
平近点角 256.942°
近地点: 464.631km
远地点: 466.429km
周期: 93.906分钟
每日圈数: 15.334496
Detailed Information
固有亮度:
5
最大亮度:
2.5
卫星平台:
Starlink V1.0
覆盖范围:
全球
运营商:
太空探索技术公司
运营商所在国:
美国
制造商(研发单位):
太空探索技术公司
制造商所在国:
美国
使用方式:
暂无
Satellite Introduction
Starlink 计划是 SpaceX 推出的全球卫星互联网项目,通过发射低轨道卫星,为全球尤其是偏远地区提供高速、低延迟的互联网服务。自 2019 年起,Starlink 已部署数千颗卫星,旨在缩小全球数字鸿沟,推动互联网普及。该项目还为军事、航空等行业提供通信支持,带来广泛经济效益。
2D Orbit Map
3D Orbit Map
Orbit Altitude Analysis Chart
Orbit Inclination Analysis Chart
Orbit Comprehensive Analysis Chart
View Comprehensive Chart
Conjunction Data List
Event ID Objects TCA Miss Dist (km) Collision Risk Probability Collision Risk Index (CRI) Action
CDM_260905-012806-261006-552221
EDISON-1 (62610)
2026-09-05T
01:28:11+0000
1.427 km
极远距离
2.234003E-6 低风险 0.42
CDM_260905-073405-377406-552221
2026-09-05T
07:34:07+0000
2.746 km
极远距离
1.421406E-6 低风险 0.38
CDM_260905-145806-533406-552221
2026-09-05T
14:58:25+0000
2.979 km
极远距离
1.296603E-6 低风险 0.37
CDM_260904-182506-261006-552221
EDISON-1 (62610)
2026-09-04T
18:25:20+0000
2.094 km
极远距离
8.193362E-7 极低风险 0.33
CDM_260904-235406-261006-552221
EDISON-1 (62610)
2026-09-04T
23:54:13+0000
2.963 km
极远距离
4.82878E-7 极低风险 0.29